ARIANE 40 R/B (22830 NORAD) Tracking and Keplerian Element Data

This shows tracking and keplerian element data for the satellite.

Feedback or suggestion? Click here.




ElementValue
Catalog22830
NameARIANE 40 R/B
Epoch Orbit68270
Epoch Day354.09043524
Epoch Year2025
RAAN59.4864
Inclination98.5067
Eccentricity0.0011281
Argument of Perigee154.9598
Mean Anonmoly205.2136
Mean Motion14.32805889
Decay Rate1.83E-06
L11 22830U 93061H 25354.09043524 .00000183 00000+0 83052-4 0 9993
L22 22830 98.5067 59.4864 0011281 154.9598 205.2136 14.32805889682702



Live tracking and technical data element details for ARIANE 40 R/B (NORAD 22830). ARIANE 40 R/B can be tracked NOW for your location showing map with azimuth and elevation plus other details from your city location.







IsCatalogInMostPopularTable: catalog: 22830, numindb: 575
Update: records affected: 1



GetName: 22830 ARIANE 40 R/B

Hit Count: updated at: Mon, 18 May 2026 09:12:02 GMT